TIANWANG 1C (TW-1C)
1 40926U 15051B   19274.89030507  .00016982  00000-0  23073-3 0  9992
2 40926  97.1255 320.9933 0006916 355.8318 110.5636 15.57646946226528
TIANWANG 1B (TW-1B)
1 40927U 15051C   19274.83351693  .00015578  00000-0  22558-3 0  9996
2 40927  97.1279 320.0911 0007700   7.1796 116.2105 15.55933948226355
TIANWANG 1A (TW-1A)
1 40928U 15051D   19274.69776809  .00003685  00000-0  90371-4 0  9996
2 40928  97.1384 303.6637 0012530  56.7712  82.0096 15.41265459225347
LAPAN A2
1 40931U 15052B   19271.94698784  .00000512  00000-0 -17736-4 0  9992
2 40931   5.9983  47.5009 0012559 161.1025 198.9569 14.76612721216403
LQSAT
1 40958U 15057A   19274.78091497  .00000027  00000-0  11854-4 0  9994
2 40958  97.8892 341.0871 0016770 263.4550  96.4750 14.73090292214275
CHUBUSAT 2
1 41338U 16012B   19274.88705309 +.00000392 +00000-0 +23851-4 0  9999
2 41338 031.0024 196.2261 0013661 065.3294 294.8763 15.00185966198721
CHUBUSAT 3
1 41339U 16012C   19274.84431268  .00000294  00000-0  16118-4 0  9995
2 41339  31.0105 194.4568 0013297  72.5291 287.6810 15.00358212198712
OUFTI-1
1 41458U 16025C   19274.83955222 +.00000946 +00000-0 +52010-4 0  9996
2 41458 098.1006 007.0299 0165897 004.0483 356.2040 15.06051614188398
E-STAR-2
1 41459U 16025D   19274.88148305 +.00000873 +00000-0 +48595-4 0  9990
2 41459 098.1008 006.6751 0167458 005.2252 355.0677 15.05670809188374
AAUSAT 4
1 41460U 16025E   19274.78981927  .00002219  00000-0  11401-3 0  9997
2 41460  98.0963   8.0906 0156768 357.2296   2.8033 15.07649333188501
NUSAT 1
1 41557U 16033B   19274.87182166 +.00001404 +00000-0 +55036-4 0  9999
2 41557 097.4153 001.7572 0012155 288.3319 071.6598 15.27404448186148
BEESAT 4
1 41619U 16040W   19274.75478590  .00001517  00000-0  66737-4 0  9997
2 41619  97.3571 334.9727 0011758  22.6284 337.5469 15.23331087169855
PRATHAM
1 41783U 16059A   19274.72010631 +.00000060 +00000-0 +20808-4 0  9995
2 41783 098.0566 331.9233 0034600 055.2390 305.2061 14.63011400160903
ALSAT 1N
1 41789U 16059G   19274.75575284  .00000056  00000-0  19650-4 0  9992
2 41789  98.0605 334.1845 0029139  44.7756 315.5792 14.64264147161025
NAYIF 1
1 42017U 17008BX  19274.70554868  .00001712  00000-0  69915-4 0  9991
2 42017  97.3935 340.6761 0007108 147.0108 213.1575 15.25749043145932
MAX VALIER SAT
1 42778U 17036P   19274.71555308 +.00001058 +00000-0 +49054-4 0  9992
2 42778 097.3437 330.0139 0011543 208.5009 151.5598 15.22155771126212
